Baton Rouge, LA

3:30 AM CST on December 14, 2017 (GMT -0600)
Baton Rouge Metro-Ryan

Weather History for KBTR - January, 2013

Change the Weather History Date:

Tuesday, January 8, 2013

  Actual Average Record
Temperature  
Mean Temperature 56 °F 52 °F  
Max Temperature 64 °F 62 °F 81 °F (2008)
Min Temperature 48 °F 41 °F 20 °F (1942)
Degree Days  
Heating Degree Days 9 14  
Month to date heating degree days 128 112  
Since 1 July heating degree days 705 728  
Cooling Degree Days 0 0  
Month to date cooling degree days 0 3  
Year to date cooling degree days 0 3  
Growing Degree Days 6 (Base 50)    
Moisture  
Dew Point 55 °F    
Average Humidity 80    
Maximum Humidity 100    
Minimum Humidity 59    
Precipitation  
Precipitation 3.27 in 0.18 in 3.27 in (2013)
Month to date precipitation 5.48 1.41  
Year to date precipitation 5.48 1.41  
Snow  
Snow 0.00 in - - ()
Month to date snowfall 0.0  
Since 1 July snowfall 0.0  
Snow Depth 0.00 in    
Sea Level Pressure  
Sea Level Pressure 30.12 in    
Wind  
Wind Speed 10 mph (East)    
Max Wind Speed 18 mph    
Max Gust Speed 24 mph    
Visibility 6 miles    
Events Rain    
T = Trace of Precipitation, MM = Missing Value Source: NWS Daily Summary

Daily Weather History Graph

Daily Weather History Graph

Search for Another Location

Airport or City:

Trip Planner

Search our weather history database for the weather conditions in past years. The results will help you decide how hot, cold, wet, or windy it might be!

Date:

Astronomy

Jan. 08, 2013 Rise Set
Actual Time 7:02 AM CST 5:20 PM CST
Civil Twilight 6:36 AM CST 5:46 PM CST
Nautical Twilight 6:06 AM CST 6:16 PM CST
Astronomical Twilight 5:37 AM CST 6:45 PM CST
Moon 3:37 AM CST (1/8) 2:22 PM CST (1/8)
Length of Visible Light 11h 10m
Length of Day
10h 17m
Waning Crescent, 13% of the Moon is Illuminated
Jan 8
Waning Crescent
Jan 11
New
Jan 18
First Quarter
Jan 26
Full
Feb 3
Last Quarter

Hourly Weather History & Observations

Time (CST) Temp. Dew Point Humidity Pressure Visibility Wind Dir Wind Speed Gust Speed Precip Events Conditions
12:53 AM 51.1 °F 39.0 °F 63% 30.17 in 10.0 mi ENE 5.8 mph - N/A   Mostly Cloudy
1:53 AM 50.0 °F 39.9 °F 68% 30.15 in 10.0 mi ENE 6.9 mph - N/A   Scattered Clouds
2:53 AM 50.0 °F 41.0 °F 71% 30.13 in 10.0 mi ENE 6.9 mph - N/A   Clear
3:53 AM 48.9 °F 39.9 °F 71% 30.13 in 10.0 mi East 5.8 mph - N/A   Clear
4:53 AM 50.0 °F 39.9 °F 68% 30.12 in 10.0 mi ENE 8.1 mph - N/A   Partly Cloudy
5:50 AM 50.0 °F 41.0 °F 71% 30.13 in 10.0 mi ENE 6.9 mph - N/A   Mostly Cloudy
5:53 AM 50.0 °F 41.0 °F 71% 30.13 in 10.0 mi East 5.8 mph - N/A   Mostly Cloudy
6:18 AM 50.0 °F 41.0 °F 71% 30.14 in 10.0 mi East 8.1 mph - N/A   Scattered Clouds
6:53 AM 48.9 °F 42.1 °F 77% 30.14 in 10.0 mi ENE 6.9 mph - N/A   Partly Cloudy
7:53 AM 50.0 °F 43.0 °F 77% 30.16 in 10.0 mi ENE 10.4 mph - N/A   Mostly Cloudy
8:53 AM 53.1 °F 45.0 °F 74% 30.18 in 10.0 mi East 9.2 mph - N/A   Mostly Cloudy
9:53 AM 57.0 °F 48.9 °F 74% 30.20 in 10.0 mi East 8.1 mph - 0.00 in Rain Light Rain
10:53 AM 57.0 °F 54.0 °F 89% 30.19 in 9.0 mi ESE 8.1 mph - 0.01 in Rain Light Rain
11:53 AM 55.9 °F 55.0 °F 97% 30.14 in 5.0 mi East 10.4 mph - 0.07 in Rain Rain
12:07 PM 55.4 °F 55.4 °F 100% 30.13 in 4.0 mi East 12.7 mph - N/A Rain Light Rain
12:53 PM 57.0 °F 55.9 °F 96% 30.11 in 4.0 mi East 11.5 mph - 0.05 in Rain Light Rain
1:53 PM 57.9 °F 57.0 °F 97% 30.09 in 7.0 mi East 10.4 mph - 0.04 in Rain Light Rain
2:53 PM 57.9 °F 57.9 °F 100% 30.09 in 3.0 mi ESE 11.5 mph - 0.04 in Rain Rain
3:53 PM 60.1 °F 59.0 °F 96% 30.07 in 6.0 mi ESE 17.3 mph - 0.18 in Rain Light Rain
4:53 PM 60.1 °F 59.0 °F 96% 30.08 in 6.0 mi ESE 12.7 mph - 0.05 in Rain Light Rain
5:53 PM 61.0 °F 60.1 °F 97% 30.10 in 9.0 mi ESE 9.2 mph - 0.03 in Rain Light Rain
6:00 PM 60.8 °F 60.8 °F 100% 30.11 in 5.0 mi SE 11.5 mph - 0.02 in Rain Rain
6:49 PM 62.6 °F 62.6 °F 100% 30.10 in 2.0 mi ESE 8.1 mph - 0.35 in Rain Heavy Rain
6:53 PM 63.0 °F 62.1 °F 97% 30.10 in 1.8 mi East 12.7 mph 18.4 mph 0.49 in Rain Heavy Rain
6:57 PM 62.6 °F 62.6 °F 100% 30.10 in 2.0 mi East 11.5 mph 18.4 mph 0.04 in Rain Heavy Rain
7:03 PM 62.6 °F 62.6 °F 100% 30.10 in 5.0 mi East 12.7 mph - 0.07 in Rain Rain
7:13 PM 62.6 °F 62.6 °F 100% 30.09 in 6.0 mi East 11.5 mph - 0.09 in Rain Rain
7:53 PM 63.0 °F 62.1 °F 97% 30.10 in 6.0 mi East 10.4 mph - 0.16 in Rain Rain
8:02 PM 62.6 °F 62.6 °F 100% 30.12 in 8.0 mi ESE 11.5 mph - 0.02 in Rain Rain
8:40 PM 60.8 °F 60.8 °F 100% 30.12 in 3.0 mi East 10.4 mph - 0.25 in Rain Heavy Rain
8:53 PM 61.0 °F 60.1 °F 97% 30.12 in 5.0 mi East 9.2 mph - 0.33 in Rain Heavy Rain
9:38 PM 60.8 °F 60.8 °F 100% 30.14 in 2.5 mi East 11.5 mph - 0.26 in Rain Heavy Rain
9:53 PM 62.1 °F 61.0 °F 96% 30.13 in 3.0 mi ENE 15.0 mph - 0.56 in Rain Heavy Rain
10:04 PM 62.6 °F 60.8 °F 94% 30.13 in 1.8 mi East 12.7 mph - 0.22 in Rain Heavy Rain
10:29 PM 62.6 °F 60.8 °F 94% 30.12 in 3.0 mi ENE 13.8 mph - 0.69 in Rain Heavy Rain
10:53 PM 62.1 °F 61.0 °F 96% 30.12 in 6.0 mi ENE 11.5 mph - 0.79 in Rain Rain
11:01 PM 62.6 °F 60.8 °F 94% 30.12 in 4.0 mi ENE 11.5 mph - 0.05 in Rain Heavy Rain
11:08 PM 62.6 °F 60.8 °F 94% 30.12 in 3.0 mi ENE 12.7 mph - 0.14 in Rain Heavy Rain
11:24 PM 62.6 °F 60.8 °F 94% 30.11 in 5.0 mi ENE 11.5 mph - 0.24 in Rain Heavy Rain
11:53 PM 62.1 °F 61.0 °F 96% 30.12 in 4.0 mi East 8.1 mph - 0.36 in Rain Heavy Rain